Location: Bittkow
(50.3000°N, 19.0000°E)
Time: 22:54:24
(UTC+00:00)

CZ-3B R/B - Pass Details

Date: 19 September 2020
Orbit: 263 x 17483 km, 54.9° (Epoch: 21 October)

Event Time Altitude Azimuth Distance (km) Brightness Sun altitude
Exits shadow 03:18:37 14° 279° (W) 1,608 3.6 -11.4°
Maximum altitude 03:21:41 60° 359° (N) 1,071 3.3 -11.0°
Drops below altitude 10° 03:34:36 10° 78° (ENE) 6,299 8.9 -9.0°
Sets 03:44:35 0° 83° (E) 9,922 10.8 -7.4°
